Estación de Nogales
Ultimos registro cada 15 minutos 77
| N° | Estación | Fecha / Hora | Temperatura | Humedad | Lluvia | Velocidad | Dirección | Radiación | Presion |
| 77 | Nogales | 08-05-2026 19:00 | 11,9 | 67,5 | 0 | 0 | 347 | 0,6 | 986,3 |
| 76 | Nogales | 08-05-2026 18:45 | 13,1 | 63,9 | 0 | 0,3 | 340 | 0,6 | 986,2 |
| 75 | Nogales | 08-05-2026 18:30 | 13,8 | 62,7 | 0 | 0 | 274 | 0,6 | 986 |
| 74 | Nogales | 08-05-2026 18:15 | 14 | 62,6 | 0 | 0 | 274 | 0,6 | 985,8 |
| 73 | Nogales | 08-05-2026 18:00 | 15,3 | 57,6 | 0 | 0 | 274 | 4,4 | 985,6 |
| 72 | Nogales | 08-05-2026 17:45 | 16,7 | 50,9 | 0 | 0 | 274 | 9,4 | 985,3 |
| 71 | Nogales | 08-05-2026 17:30 | 18,2 | 46,6 | 0 | 0,7 | 233 | 16,9 | 985,2 |
| 70 | Nogales | 08-05-2026 17:15 | 19,8 | 42,3 | 0 | 1 | 275 | 93,1 | 985,1 |
| 69 | Nogales | 08-05-2026 17:00 | 20,9 | 40,6 | 0 | 2 | 216 | 164,4 | 985,1 |
| 68 | Nogales | 08-05-2026 16:45 | 22,5 | 34,1 | 0 | 2 | 199 | 211,9 | 985,2 |
| 67 | Nogales | 08-05-2026 16:30 | 23,1 | 33 | 0 | 1,3 | 171 | 261,9 | 985,2 |
| 66 | Nogales | 08-05-2026 16:15 | 23,6 | 31,6 | 0 | 1 | 150 | 308,1 | 985 |
| 65 | Nogales | 08-05-2026 16:00 | 23,2 | 31,4 | 0 | 1 | 174 | 348,1 | 985,2 |
| 64 | Nogales | 08-05-2026 15:45 | 23,5 | 31,1 | 0 | 1,7 | 161 | 396,9 | 985,3 |
| 63 | Nogales | 08-05-2026 15:30 | 23,3 | 30,8 | 0 | 1,3 | 147 | 440,6 | 985,3 |
| 62 | Nogales | 08-05-2026 15:15 | 23,1 | 31,4 | 0 | 1,3 | 152 | 480,6 | 985,3 |
| 61 | Nogales | 08-05-2026 15:00 | 22,7 | 30,5 | 0 | 1,3 | 161 | 519,4 | 985,6 |
| 60 | Nogales | 08-05-2026 14:45 | 23 | 30,3 | 0 | 2 | 168 | 554,4 | 985,7 |
| 59 | Nogales | 08-05-2026 14:30 | 22,8 | 30 | 0 | 1 | 170 | 586,9 | 985,8 |
| 58 | Nogales | 08-05-2026 14:15 | 22,8 | 28,7 | 0 | 0,7 | 181 | 609,4 | 986 |
| 57 | Nogales | 08-05-2026 14:00 | 22,4 | 30,7 | 0 | 1 | 174 | 631,9 | 986,2 |
| 56 | Nogales | 08-05-2026 13:45 | 22,4 | 33,3 | 0 | 1,3 | 177 | 651,9 | 986,2 |
| 55 | Nogales | 08-05-2026 13:30 | 21,4 | 37,9 | 0 | 1,7 | 166 | 663,1 | 986,3 |
| 54 | Nogales | 08-05-2026 13:15 | 21,5 | 37,1 | 0 | 1 | 157 | 681,9 | 986,5 |
| 53 | Nogales | 08-05-2026 13:00 | 20,9 | 38,8 | 0 | 1 | 163 | 686,9 | 986,8 |
| 52 | Nogales | 08-05-2026 12:45 | 20,5 | 42,6 | 0 | 1 | 177 | 691,9 | 987,3 |
| 51 | Nogales | 08-05-2026 12:30 | 19,7 | 49,7 | 0 | 0,7 | 219 | 685,6 | 987,2 |
| 50 | Nogales | 08-05-2026 12:15 | 19 | 51,1 | 0 | 0,7 | 250 | 684,4 | 987,5 |
| 49 | Nogales | 08-05-2026 12:00 | 18,3 | 54,3 | 0 | 0,3 | 265 | 671,9 | 987,6 |
| 48 | Nogales | 08-05-2026 11:45 | 18,5 | 54,7 | 0 | 0,3 | 101 | 659,4 | 987,7 |
| 47 | Nogales | 08-05-2026 11:30 | 17,8 | 57 | 0 | 0,3 | 160 | 636,9 | 988,2 |
| 46 | Nogales | 08-05-2026 11:15 | 16,2 | 62,7 | 0 | 0,7 | 205 | 615,6 | 988,3 |
| 45 | Nogales | 08-05-2026 11:00 | 16,1 | 63,7 | 0 | 0,7 | 209 | 590,6 | 988,6 |
| 44 | Nogales | 08-05-2026 10:45 | 15,8 | 67,6 | 0 | 0,7 | 226 | 561,9 | 988,7 |
| 43 | Nogales | 08-05-2026 10:30 | 15 | 68,6 | 0 | 0,3 | 230 | 531,9 | 988,9 |
| 42 | Nogales | 08-05-2026 10:15 | 15,2 | 70,2 | 0 | 0 | 46 | 495,6 | 989 |
| 41 | Nogales | 08-05-2026 10:00 | 14,5 | 75 | 0 | 0,3 | 27 | 459,4 | 988,8 |
| 40 | Nogales | 08-05-2026 09:45 | 13 | 85,2 | 0 | 0,3 | 358 | 415,6 | 988,9 |
| 39 | Nogales | 08-05-2026 09:30 | 11,8 | 92,2 | 0 | 0 | 348 | 370,6 | 988,9 |
| 38 | Nogales | 08-05-2026 09:15 | 10,7 | 95,2 | 0 | 0 | 348 | 326,9 | 989 |
| 37 | Nogales | 08-05-2026 09:00 | 8,8 | 96,7 | 0 | 0,3 | 324 | 284,4 | 989,1 |
| 36 | Nogales | 08-05-2026 08:45 | 8,7 | 97,3 | 0 | 0 | 300 | 214,4 | 989,3 |
| 35 | Nogales | 08-05-2026 08:30 | 6,1 | 97,1 | 0 | 0 | 300 | 194,4 | 988,8 |
| 34 | Nogales | 08-05-2026 08:15 | 3,1 | 97,2 | 0 | 0 | 300 | 25,6 | 989 |
| 33 | Nogales | 08-05-2026 08:00 | 3,2 | 97,4 | 0 | 0 | 300 | 14,4 | 989,2 |
| 32 | Nogales | 08-05-2026 07:45 | 3 | 97,4 | 0 | 0 | 300 | 10,6 | 989,1 |
| 31 | Nogales | 08-05-2026 07:30 | 2,8 | 97,1 | 0 | 0 | 300 | 5,6 | 989,2 |
| 30 | Nogales | 08-05-2026 07:15 | 2,6 | 97 | 0 | 0 | 300 | 0,6 | 989 |
| 29 | Nogales | 08-05-2026 07:00 | 2,9 | 96,7 | 0 | 0 | 300 | 0,6 | 988,9 |
| 28 | Nogales | 08-05-2026 06:45 | 2,9 | 97,2 | 0 | 0 | 300 | 0,6 | 988,9 |
| 27 | Nogales | 08-05-2026 06:30 | 2,4 | 96,7 | 0 | 0 | 300 | 0,6 | 988,9 |
| 26 | Nogales | 08-05-2026 06:15 | 2,9 | 96,5 | 0 | 0 | 300 | 0,6 | 988,7 |
| 25 | Nogales | 08-05-2026 06:00 | 3,8 | 96,9 | 0 | 0 | 300 | 0,6 | 988,7 |
| 24 | Nogales | 08-05-2026 05:45 | 3,6 | 96,9 | 0 | 0 | 300 | 0,6 | 988,7 |
| 23 | Nogales | 08-05-2026 05:30 | 2,9 | 96,6 | 0 | 0 | 300 | 0,6 | 988,5 |
| 22 | Nogales | 08-05-2026 05:15 | 3,2 | 96,7 | 0 | 0 | 300 | 0,6 | 988,3 |
| 21 | Nogales | 08-05-2026 05:00 | 3,1 | 96,2 | 0 | 0 | 300 | 0,6 | 988,1 |
| 20 | Nogales | 08-05-2026 04:45 | 3 | 96,2 | 0 | 0 | 300 | 0,6 | 988,2 |
| 19 | Nogales | 08-05-2026 04:30 | 3,1 | 96 | 0 | 0 | 300 | 0,6 | 988,3 |
| 18 | Nogales | 08-05-2026 04:15 | 3,9 | 96,1 | 0 | 0 | 300 | 0,6 | 988,5 |
| 17 | Nogales | 08-05-2026 04:00 | 4 | 96,1 | 0 | 0 | 300 | 0,6 | 988,8 |
| 16 | Nogales | 08-05-2026 03:45 | 4,3 | 95,9 | 0 | 0 | 300 | 0,6 | 988,8 |
| 15 | Nogales | 08-05-2026 03:30 | 4,2 | 95,6 | 0 | 0 | 300 | 0,6 | 988,9 |
| 14 | Nogales | 08-05-2026 03:15 | 4,1 | 95,5 | 0 | 0 | 300 | 0,6 | 989,1 |
| 13 | Nogales | 08-05-2026 03:00 | 4,9 | 95,7 | 0 | 0 | 300 | 0,6 | 989,1 |
| 12 | Nogales | 08-05-2026 02:45 | 4,8 | 95,6 | 0 | 0 | 300 | 0,6 | 989,3 |
| 11 | Nogales | 08-05-2026 02:30 | 4,5 | 95 | 0 | 0 | 300 | 0,6 | 989,7 |
| 10 | Nogales | 08-05-2026 02:15 | 4,9 | 95,2 | 0 | 0 | 300 | 0,6 | 989,7 |
| 9 | Nogales | 08-05-2026 02:00 | 5,5 | 95,1 | 0 | 0 | 300 | 0,6 | 989,8 |
| 8 | Nogales | 08-05-2026 01:45 | 5,7 | 95,1 | 0 | 0 | 300 | 0,6 | 989,6 |
| 7 | Nogales | 08-05-2026 01:30 | 5,5 | 94,5 | 0 | 0 | 300 | 0,6 | 989,9 |
| 6 | Nogales | 08-05-2026 01:15 | 5,9 | 94,5 | 0 | 0 | 300 | 0,6 | 990,2 |
| 5 | Nogales | 08-05-2026 01:00 | 5,9 | 94,4 | 0 | 0 | 300 | 0,6 | 990,3 |
| 4 | Nogales | 08-05-2026 00:45 | 6,2 | 93,9 | 0 | 0 | 300 | 0,6 | 990,3 |
| 3 | Nogales | 08-05-2026 00:30 | 6 | 93,4 | 0 | 0 | 300 | 0,6 | 990,4 |
| 2 | Nogales | 08-05-2026 00:15 | 6,6 | 93,3 | 0 | 0 | 300 | 0,6 | 990,5 |
| 1 | Nogales | 08-05-2026 00:00 | 6,7 | 93,5 | 0 | 0 | 300 | 0,6 | 990,6 |